GFSWCAN_925_thetae_111.txt.gz
Theta_e
311 313 313 310 312 313 312 310 310 312 314 317 306 307 311 311 313 320 320 320 317 313 313 315 316 315 314 309 312 311 313 313 312 314 316 317 316 317 315 317 319 314 311 311 310 315 321 319 322 322 321 322 327 331
313 312 310 310 310 312 312 310 310 311 313 316 306 307 310 311 313 319 319 320 319 312 314 316 317 316 316 314 309 309 313 314 315 314 314 315 318 316 316 315 314 316 315 318 314 316 316 315 322 321 321 321 323 322
312 311 311 311 311 311 312 311 310 311 314 315 306 306 308 310 313 318 320 320 319 312 314 314 317 318 318 318 316 314 312 313 313 311 312 313 316 312 315 317 319 316 312 317 317 318 317 315 316 319 318 318 319 319
311 312 313 312 312 312 311 311 311 312 315 315 306 306 307 310 311 316 319 318 320 314 314 315 318 317 317 318 318 317 313 313 310 308 308 310 315 312 314 314 315 316 316 313 314 316 315 314 314 317 317 316 317 317
312 313 312 312 312 311 311 312 311 312 316 312 306 306 307 310 311 317 319 316 318 317 315 315 314 316 316 316 316 316 316 312 310 312 313 316 310 311 310 311 312 313 314 314 316 314 312 314 313 314 316 316 315 315
312 311 311 311 311 311 311 312 312 314 317 308 306 307 308 311 317 321 315 319 317 319 313 317 312 316 315 315 314 313 312 309 310 311 311 310 308 309 312 312 313 312 312 311 315 313 312 314 313 313 312 312 311 311
312 311 311 311 311 311 311 311 313 316 314 306 307 308 310 313 318 320 317 318 316 320 313 316 316 313 316 315 312 310 310 307 308 307 309 308 308 307 308 306 313 312 313 315 314 313 316 314 314 312 312 313 312 310
312 310 311 311 311 311 312 314 315 311 306 307 308 312 315 317 319 320 317 316 319 322 312 316 317 315 315 314 314 309 310 308 306 307 306 308 305 303 305 308 310 310 312 314 313 312 311 312 313 313 312 311 311 309
311 310 310 311 313 314 315 314 307 306 307 310 312 315 318 320 320 318 314 315 315 320 319 315 317 318 311 310 309 310 308 312 306 309 309 307 307 307 304 305 308 310 313 313 313 313 313 313 312 312 312 311 310 310
312 311 312 313 314 315 310 305 307 309 312 314 318 320 318 320 316 314 316 314 316 315 315 318 312 317 311 311 312 311 307 309 307 309 308 309 308 307 306 303 306 309 311 310 312 312 312 312 311 313 311 310 310 311
313 314 314 314 312 305 305 308 311 313 316 319 319 318 318 315 319 316 318 320 318 322 313 314 312 315 311 315 313 309 310 308 311 310 311 307 310 309 310 305 304 306 310 309 309 309 310 310 311 311 311 313 312 312
313 311 308 305 305 306 309 312 315 316 313 311 313 316 319 316 314 321 319 318 319 319 313 314 313 312 311 308 312 311 312 310 314 309 313 308 309 308 310 311 309 308 310 311 311 310 312 312 312 311 310 311 313 313
310 309 305 305 305 305 307 311 311 308 315 319 318 320 315 316 317 323 325 322 319 315 315 314 315 312 310 307 309 311 313 312 309 314 310 310 307 310 310 311 311 311 312 312 312 312 312 312 312 312 311 312 312 312
308 307 306 305 305 305 305 306 306 308 317 319 320 314 317 320 321 319 321 322 319 316 314 312 313 314 310 312 310 315 312 310 314 312 315 311 309 310 311 310 311 311 311 310 310 311 311 311 311 311 311 311 312 311
307 310 310 309 308 307 307 306 306 308 318 321 319 320 321 318 317 321 321 319 315 313 314 314 313 313 314 316 314 314 318 319 315 313 310 310 310 311 310 309 308 308 306 303 305 306 307 307 307 307 307 307 308 308
309 312 313 312 309 310 309 308 307 311 317 319 319 321 319 321 321 321 320 320 313 311 312 312 316 317 319 315 317 318 319 318 315 311 309 310 310 310 309 308 308 306 304 304 306 306 306 306 305 305 306 307 307 307
310 313 312 310 309 308 308 311 313 316 318 319 317 315 317 317 318 318 319 319 310 314 316 314 319 318 314 317 318 316 317 313 313 314 314 314 312 311 310 310 307 304 304 305 305 304 305 306 306 306 304 305 306 306
312 312 310 310 311 313 312 313 315 320 321 316 317 315 316 316 318 318 318 317 313 312 314 318 316 318 318 318 315 316 316 315 316 318 317 315 313 313 313 311 307 305 305 305 304 305 306 306 305 305 306 306 305 304
310 310 308 309 311 312 314 316 314 318 319 316 315 315 316 317 316 317 318 317 313 311 314 315 317 317 317 316 320 319 317 317 317 318 316 315 313 313 313 310 307 304 305 304 304 305 306 306 307 307 307 306 305 304
312 312 310 308 309 311 316 316 317 317 319 318 316 318 318 319 319 318 317 316 314 314 317 318 316 318 320 320 319 319 317 318 317 316 315 314 313 313 312 308 305 305 305 304 305 306 306 306 306 307 306 305 304 305
312 311 311 311 310 308 310 313 318 318 319 321 320 321 323 321 323 323 321 317 320 322 322 320 321 322 320 320 320 320 317 317 317 317 316 315 314 313 312 310 306 305 305 303 304 304 305 304 305 306 306 306 306 306
312 313 313 310 311 313 311 313 315 316 318 320 320 321 323 324 324 322 319 321 322 322 321 320 318 317 317 317 318 319 319 319 315 314 314 314 311 309 309 309 306 305 305 305 304 305 306 305 305 305 305 304 304 303
312 312 312 313 314 310 312 315 320 319 320 321 324 325 324 324 322 319 323 320 319 317 318 318 318 318 316 317 316 316 318 316 311 313 312 312 313 313 313 312 309 307 305 306 306 306 306 305 305 305 304 304 304 304
312 311 314 315 314 312 314 318 318 321 321 323 325 325 325 326 323 324 325 320 318 316 317 317 317 311 309 310 310 310 312 312 312 311 312 312 310 311 313 313 310 308 308 308 307 307 306 306 306 305 304 304 304 303
310 311 308 306 312 320 321 322 322 322 324 324 325 324 324 321 324 325 325 322 319 320 319 318 317 311 310 310 310 312 313 313 311 311 313 313 313 310 309 310 310 310 309 307 305 305 305 306 306 305 305 304 304 304
313 316 312 316 317 318 318 322 323 323 323 323 326 325 324 325 327 325 322 320 320 320 318 316 317 315 311 311 311 310 313 313 313 312 313 313 314 310 304 302 301 304 306 306 306 305 304 304 304 305 305 305 305 304
316 317 315 313 315 317 318 318 320 322 323 321 324 325 323 324 327 323 319 318 320 317 315 316 318 317 314 311 312 312 314 313 312 311 313 313 312 311 310 305 303 306 306 306 306 306 305 305 304 304 305 305 305 304
314 315 319 317 317 317 319 321 321 319 322 320 323 326 325 323 322 318 318 320 319 315 315 315 314 314 314 313 313 312 308 307 307 307 308 308 308 307 306 306 306 306 307 306 306 306 306 305 305 305 305 304 304 304
316 315 315 317 318 321 320 321 321 321 321 321 322 323 323 320 318 318 320 317 314 314 313 312 313 313 314 314 313 310 307 307 305 303 303 301 301 305 306 306 305 305 306 306 306 305 305 305 305 305 305 305 304 304
314 313 316 318 319 319 318 318 322 321 320 319 318 318 317 316 321 322 317 314 313 312 312 312 313 313 312 311 311 310 306 306 307 305 301 302 304 306 305 305 305 306 306 305 305 305 305 304 304 304 304 303 303 304
313 313 315 316 317 316 316 316 319 319 319 321 320 320 322 319 319 319 318 315 314 312 312 311 310 310 310 309 308 306 304 306 306 306 306 306 306 306 305 305 305 305 305 305 305 304 304 303 303 302 301 301 303 303
313 315 316 318 317 315 315 319 321 321 320 320 321 320 321 321 320 314 318 318 314 313 311 310 310 309 310 311 310 309 308 307 307 307 307 307 306 306 306 305 305 305 305 304 303 304 303 302 302 303 303 303 303 305
316 317 319 319 318 322 321 321 321 319 319 319 319 322 323 321 319 315 316 316 316 314 311 311 310 309 309 309 309 309 308 307 307 307 307 307 307 307 306 305 305 305 305 305 304 303 303 303 302 302 303 304 304 304

GFSWCAN_925_thetae_114.txt.gz
Theta_e
309 310 312 310 310 310 311 312 311 310 311 314 308 307 310 311 316 319 319 319 315 311 312 313 314 314 312 308 312 309 312 312 310 313 314 314 314 315 313 315 318 311 310 310 309 314 320 316 320 321 317 322 330 331
309 312 311 310 311 310 310 311 311 310 311 314 308 307 309 310 316 318 319 319 317 312 313 315 316 315 314 313 308 308 311 312 313 312 312 313 317 314 313 314 314 316 312 316 311 312 312 314 318 320 320 323 326 325
312 311 311 312 312 311 311 311 311 310 311 314 308 306 308 310 313 318 319 319 316 311 313 314 316 317 317 317 314 313 310 311 310 309 310 311 314 310 314 315 318 315 311 316 317 317 317 314 317 318 318 320 320 320
312 313 313 312 312 312 311 311 311 311 312 314 307 306 307 310 311 318 318 318 319 310 314 315 317 316 316 316 317 315 311 310 307 305 307 309 313 309 312 311 313 313 314 313 314 315 314 314 314 316 317 318 319 319
313 313 312 311 311 311 311 311 311 311 313 314 307 306 307 310 312 318 317 316 320 315 314 313 313 314 314 315 314 315 313 309 308 312 312 314 308 310 308 309 311 311 313 315 317 313 312 313 312 314 317 317 317 317
313 313 311 310 311 311 311 311 312 312 315 314 306 306 308 311 317 320 313 318 317 319 312 316 311 314 314 314 313 311 309 307 307 310 309 308 306 308 310 312 310 310 311 310 313 313 311 313 312 311 313 315 314 315
313 312 310 311 311 311 311 312 312 314 316 309 306 307 310 314 319 319 315 317 316 321 312 315 314 312 314 313 311 308 308 305 306 305 307 307 306 305 307 307 311 312 312 314 313 313 315 313 313 311 311 312 313 312
312 311 311 311 311 311 311 311 314 315 310 306 308 311 313 316 318 319 316 315 320 319 311 314 315 314 314 313 313 306 309 305 304 305 304 306 304 302 306 307 309 310 311 313 313 311 310 311 312 312 311 311 309 308
312 311 311 312 313 314 314 314 310 306 307 309 312 314 317 319 319 317 315 314 317 318 317 313 316 317 310 308 308 308 305 310 304 308 308 306 307 304 305 304 307 308 312 313 312 312 312 312 311 312 312 310 310 310
313 312 313 314 314 312 305 305 307 308 311 313 317 319 318 317 314 313 316 312 313 313 312 317 310 316 310 309 310 310 305 307 306 307 306 308 307 306 304 301 305 307 309 309 312 312 311 312 311 311 311 310 309 310
312 313 313 310 305 305 307 310 312 312 315 318 318 315 317 314 317 314 317 315 315 320 313 313 311 314 309 314 312 307 308 306 309 308 311 306 308 308 308 306 302 305 308 309 309 309 309 309 309 310 310 312 311 311
309 309 305 305 305 307 310 312 312 315 313 313 315 317 318 314 313 319 318 316 318 319 312 314 312 310 309 306 311 309 311 308 312 308 312 308 308 306 308 309 305 304 308 310 310 310 310 311 311 310 309 310 312 312
306 308 306 305 305 305 308 311 307 311 317 319 317 317 314 314 315 321 322 321 318 314 312 311 314 310 308 306 308 309 313 311 308 313 310 309 307 307 307 309 309 306 307 310 311 311 311 311 311 312 310 310 311 312
308 308 307 307 306 305 305 306 306 308 317 317 318 313 316 319 318 318 318 318 316 313 312 310 311 312 308 311 308 313 310 309 312 311 313 310 308 309 308 310 310 311 310 311 311 311 311 311 311 311 311 311 311 311
308 309 310 308 308 308 308 307 306 308 317 320 319 320 319 316 315 316 316 317 315 311 311 313 311 311 312 314 312 312 316 318 314 313 310 308 308 308 310 309 309 310 308 306 307 307 309 309 308 307 307 307 307 308
309 310 312 312 310 310 309 309 307 310 316 318 319 321 318 320 320 319 319 318 312 310 309 311 314 316 317 314 317 316 317 318 315 311 309 311 310 309 308 308 308 306 305 305 305 306 306 306 305 305 306 306 306 306
309 313 311 310 309 308 308 308 311 315 316 318 317 313 315 316 318 317 317 319 310 312 315 314 318 318 313 315 317 314 316 312 310 312 314 311 313 310 308 309 306 304 304 304 304 304 304 305 305 305 304 305 305 305
311 312 308 309 310 312 312 313 316 319 322 317 315 312 313 314 315 315 315 311 313 313 312 315 314 317 318 319 317 314 313 313 314 315 316 314 311 310 312 311 310 305 304 304 303 304 305 305 304 304 305 305 304 304
310 310 310 308 310 311 314 315 312 315 318 317 313 313 313 314 313 313 315 315 312 310 312 315 318 316 316 314 318 316 317 316 318 317 317 313 312 313 312 312 308 304 303 302 303 305 304 306 306 305 305 304 303 304
308 311 312 309 309 309 314 314 315 314 316 316 313 316 315 316 316 316 316 315 312 312 313 315 313 313 316 318 318 320 318 317 317 317 316 314 313 313 311 310 306 304 303 302 304 305 305 305 306 306 305 303 304 305
311 311 310 310 309 308 309 311 314 314 315 318 318 320 322 318 320 320 320 314 317 316 316 314 316 319 316 319 319 319 316 315 317 316 315 314 313 313 311 308 305 304 302 302 303 303 304 304 305 306 305 305 305 305
311 311 312 310 310 311 312 311 311 312 313 317 317 320 321 322 322 320 317 321 320 319 318 319 317 316 316 316 316 317 318 317 317 315 313 313 312 309 308 307 304 302 303 303 304 304 305 304 305 305 305 304 304 303
312 312 311 311 313 311 312 313 317 317 319 317 321 323 322 322 320 318 322 319 318 314 316 316 317 317 315 314 315 316 318 316 311 312 312 312 312 312 311 309 308 305 303 304 305 305 305 305 305 305 305 303 303 303
310 310 312 313 311 311 312 315 315 318 319 321 322 324 323 324 322 325 326 321 317 315 315 316 315 311 310 311 311 310 312 313 311 312 313 310 309 309 311 312 311 311 310 308 306 305 305 304 305 304 304 303 303 303
313 312 309 307 312 319 319 320 320 321 322 322 324 324 323 319 322 325 324 320 317 317 316 316 315 311 312 309 307 310 311 312 311 311 312 312 311 309 309 310 311 312 309 307 305 305 305 305 305 305 304 303 303 303
310 313 311 314 315 315 317 321 323 321 321 322 323 322 321 323 326 325 321 318 317 318 317 315 316 314 309 308 308 310 312 313 313 311 312 312 312 311 307 305 305 308 310 308 307 305 305 305 305 305 304 304 303 303
313 318 315 310 313 315 316 318 321 320 321 321 322 323 322 323 324 322 316 315 317 316 314 313 316 315 312 309 311 312 312 313 313 312 312 312 312 313 312 309 306 310 309 308 308 307 305 305 305 304 304 304 304 304
316 314 316 315 315 315 318 318 320 319 320 319 322 325 324 322 321 317 316 318 316 314 313 313 312 313 313 312 312 313 310 308 307 307 307 307 308 309 310 310 309 307 307 307 307 306 306 305 305 304 304 304 305 304
315 314 314 316 316 317 319 318 320 320 319 320 322 322 322 318 316 316 318 317 314 313 311 311 312 312 312 312 310 308 307 306 305 304 304 303 303 306 307 306 305 305 305 306 306 306 306 305 305 305 305 305 305 304
314 312 315 316 318 319 317 316 320 320 319 317 317 317 317 315 320 321 315 313 312 312 311 311 312 312 310 310 309 305 305 305 306 305 302 303 304 306 306 306 306 305 305 305 306 305 305 305 305 304 304 304 304 304
311 311 314 314 315 314 315 315 317 318 318 318 318 318 317 317 317 320 317 314 312 312 311 309 310 311 310 309 308 307 305 306 306 306 305 305 306 306 306 306 305 305 305 305 305 305 304 304 304 303 303 303 303 303
312 315 316 317 315 313 315 319 319 319 317 318 318 318 319 321 319 313 316 316 312 311 312 311 310 311 312 312 310 309 309 308 307 306 306 307 306 306 306 305 305 305 305 304 304 304 304 304 303 303 302 302 301 302
313 313 313 315 316 320 320 319 318 317 317 317 317 319 321 321 320 315 316 316 317 315 314 312 311 309 308 309 309 310 310 308 307 307 307 307 307 306 306 305 305 305 305 304 303 303 303 303 302 301 302 302 303 304

GFSWCAN_925_thetae_117.txt.gz
Theta_e
312 309 311 310 310 310 310 310 311 311 310 311 313 307 308 310 314 317 318 316 316 319 318 316 316 317 316 316 319 316 318 319 319 321 319 321 326 325 325 321 323 320 321 321 318 320 318 322 325 324 328 328 332 337
309 310 310 311 311 311 311 311 311 311 310 311 312 307 308 310 314 318 319 317 316 319 319 315 316 315 314 314 316 316 319 320 320 321 321 323 326 324 323 328 318 325 320 322 320 320 321 321 324 326 326 329 333 336
308 310 312 313 313 312 312 312 311 311 310 312 312 306 307 310 314 318 318 317 317 320 319 319 319 316 316 315 314 319 317 317 318 317 321 322 323 321 328 326 322 320 317 326 325 324 323 322 322 324 325 326 327 330
308 309 312 312 312 311 311 311 311 311 311 312 311 306 307 309 314 317 317 319 316 317 321 320 315 316 314 315 315 313 315 312 313 314 319 319 320 316 320 319 323 321 319 323 323 321 320 320 321 320 325 326 327 325
308 311 312 312 312 311 311 310 311 310 311 313 310 306 307 310 316 317 317 318 319 319 321 320 314 314 313 313 314 314 315 317 318 320 321 322 318 319 317 317 322 320 323 327 327 321 321 321 319 319 324 326 326 325
308 312 312 311 311 311 311 311 311 311 311 313 308 306 307 311 318 319 319 317 318 315 321 322 315 316 315 315 314 313 314 315 317 321 320 316 312 317 322 324 319 318 317 319 322 318 317 317 317 316 319 321 321 323
311 312 311 311 311 311 311 311 312 312 314 313 306 307 309 314 319 321 318 317 316 319 321 321 321 317 315 316 316 315 312 312 315 315 317 317 315 315 319 323 318 318 318 317 317 318 319 317 318 316 315 316 317 318
312 312 311 311 312 312 311 311 312 314 315 307 306 309 312 316 317 318 315 315 319 317 317 322 322 320 315 320 320 313 317 314 313 314 313 315 312 312 321 318 315 317 317 318 317 315 317 316 316 317 315 315 316 319
312 312 312 313 313 313 313 313 314 313 306 307 310 314 316 319 320 317 315 314 319 320 324 322 325 324 315 316 316 316 314 318 311 317 316 315 314 316 317 316 314 317 318 319 316 316 316 316 316 316 316 315 316 316
312 312 312 312 310 305 305 305 306 307 309 311 315 319 323 317 313 313 315 317 320 320 320 325 317 322 318 317 317 318 314 317 321 315 313 317 320 316 315 311 311 316 316 317 318 316 315 315 315 315 315 315 314 314
309 311 308 305 305 306 309 310 311 311 313 317 321 319 316 314 317 318 321 320 319 323 322 321 320 321 314 320 320 315 318 315 318 316 319 319 319 317 315 315 311 313 315 316 313 313 313 314 315 316 315 315 315 315
308 309 307 305 305 306 310 307 313 316 315 316 317 316 317 318 319 323 323 320 323 323 319 321 320 317 316 314 319 316 317 315 316 314 319 322 318 317 315 316 312 312 314 315 314 314 313 314 315 315 315 314 315 315
308 308 309 305 305 305 307 307 307 314 317 318 318 319 320 318 320 323 324 325 324 321 317 317 320 318 313 314 317 317 318 317 314 319 323 320 318 316 315 316 314 311 313 314 315 314 314 314 314 314 315 314 314 314
307 309 308 307 309 307 305 305 306 310 317 321 321 319 320 322 322 322 323 323 322 319 318 319 318 319 315 317 316 318 316 315 317 319 319 318 317 316 315 314 315 314 312 313 314 315 314 314 314 313 311 312 312 313
307 309 310 309 308 309 308 308 306 308 318 323 323 321 322 320 319 320 320 320 320 318 317 318 318 319 318 319 318 318 319 320 319 320 318 316 317 316 316 314 315 315 314 314 314 314 314 313 312 311 309 309 309 310
307 311 311 312 311 310 310 309 307 309 316 320 322 325 322 323 324 322 322 323 319 316 316 319 320 322 321 321 321 321 320 322 321 319 317 317 317 317 315 313 313 314 313 312 311 311 309 309 308 308 308 308 308 308
308 311 311 309 310 310 311 310 311 315 315 318 319 319 320 320 322 322 321 322 316 318 322 321 323 323 319 322 322 321 322 321 319 317 317 317 318 315 314 313 311 310 310 309 308 307 307 307 308 308 308 308 308 307
309 312 308 308 309 311 311 312 315 317 318 319 318 316 317 318 319 319 319 316 318 319 319 322 320 321 323 323 322 322 320 318 318 320 318 315 315 315 313 312 308 308 307 307 307 307 308 308 307 308 308 308 307 306
309 309 310 310 309 311 314 315 313 318 318 320 319 317 316 317 317 318 318 319 317 316 318 320 322 323 322 322 324 323 322 320 323 320 320 318 315 312 313 311 308 308 307 306 307 308 307 307 307 307 307 306 307 307
308 309 310 311 309 309 313 316 314 317 320 319 318 318 318 320 320 320 320 319 317 318 319 320 321 322 322 324 323 325 324 323 323 323 321 318 315 314 313 309 309 308 306 305 307 306 307 307 307 307 307 306 307 307
309 310 309 309 308 308 311 315 318 319 320 322 321 321 325 321 322 323 324 320 321 322 323 323 324 323 322 323 323 323 323 322 323 323 322 318 316 315 311 312 309 307 307 306 307 307 306 307 307 307 307 307 306 306
309 310 311 310 311 312 312 312 315 316 318 321 321 323 324 326 326 326 323 325 328 330 326 326 325 324 324 323 322 320 321 320 320 318 315 316 316 315 312 311 310 309 308 307 308 308 307 306 307 307 307 306 305 305
311 311 311 311 313 312 313 313 320 320 321 321 323 327 327 327 325 322 329 327 326 321 322 322 322 321 321 318 317 319 320 320 319 318 315 315 315 314 314 312 310 310 309 308 307 308 307 305 305 306 306 305 305 305
310 312 314 315 312 312 315 319 319 321 322 324 325 327 326 328 326 328 329 328 325 322 322 322 320 318 316 317 321 320 318 317 318 317 316 315 315 315 314 314 312 311 310 310 307 307 307 306 305 305 306 306 305 305
314 313 312 309 315 319 321 322 321 323 324 325 327 328 327 324 328 328 329 326 323 323 323 321 321 319 321 318 315 313 312 315 316 317 314 314 314 313 313 313 313 313 310 310 309 307 307 306 306 306 306 306 306 306
314 314 313 316 316 317 319 322 322 323 324 325 325 326 325 328 328 328 327 325 324 322 321 320 321 320 316 316 315 315 314 313 314 315 315 314 314 314 315 315 315 313 310 311 310 308 308 307 306 306 306 305 304 305
314 317 317 315 316 318 319 320 321 321 323 324 325 326 325 326 326 327 323 321 321 318 315 314 317 319 319 314 313 314 313 313 314 314 312 312 313 313 314 314 313 312 310 310 309 309 308 307 307 307 306 306 306 305
316 316 318 317 318 318 320 321 322 323 323 324 325 326 326 325 325 324 322 319 315 313 311 311 311 315 316 314 313 312 310 310 310 309 308 307 309 310 311 310 311 309 308 308 309 308 308 307 307 306 305 305 305 306
316 316 316 318 318 320 321 321 323 325 324 324 326 326 326 324 321 321 320 318 312 313 314 314 312 312 312 311 311 309 307 307 308 310 310 309 309 307 307 306 306 306 306 307 307 307 307 306 306 306 306 306 306 306
316 315 318 319 320 321 321 321 323 323 323 322 322 322 323 321 321 319 315 313 314 314 313 313 313 314 313 311 308 307 306 306 306 308 309 308 308 307 306 305 305 305 305 306 306 305 305 305 305 305 305 306 306 306
314 315 317 317 318 318 319 318 320 322 322 322 321 322 322 322 319 320 316 314 312 312 313 313 312 312 312 312 311 310 309 307 306 306 306 306 306 306 306 305 305 304 305 306 306 306 306 306 306 306 306 306 306 304
315 317 318 319 319 317 317 320 323 324 322 323 324 323 324 324 323 319 316 313 313 314 313 313 313 313 312 312 312 311 310 309 308 307 306 306 305 305 305 305 305 305 305 305 305 305 306 306 305 305 305 305 305 304
316 316 317 318 318 321 323 323 323 323 322 323 323 323 324 320 322 320 315 315 317 317 316 314 313 311 310 308 309 310 310 309 307 307 306 306 306 306 305 305 305 304 304 304 305 305 305 305 305 305 304 304 304 304

GFSWCAN_925_thetae_123.txt.gz
Theta_e
314 314 312 310 309 309 312 313 313 313 312 312 312 313 308 309 312 315 325 323 328 325 324 323 323 323 322 321 320 324 320 322 320 321 320 320 321 320 324 324 322 323 324 324 323 326 330 327 324 325 334 331 331 332
314 312 310 308 308 311 313 313 313 312 312 312 311 313 308 309 312 315 325 323 325 327 325 322 321 320 320 320 319 320 320 325 322 321 321 321 322 321 322 323 324 324 322 326 326 329 328 325 329 329 330 331 333 333
312 308 308 308 309 313 313 313 312 311 312 312 311 313 307 309 313 317 324 323 324 324 324 323 323 320 318 318 318 321 323 324 323 323 322 322 323 321 322 322 321 323 324 323 323 324 324 326 327 328 328 330 332 334
309 308 308 309 313 313 311 311 311 311 311 311 311 312 307 309 314 317 324 324 325 323 324 326 320 320 318 318 319 319 322 321 321 320 321 321 321 322 320 323 325 323 327 322 322 327 328 324 326 326 329 330 333 334
308 308 309 313 312 312 311 312 311 311 311 311 312 311 307 309 316 320 323 324 325 326 323 324 321 319 319 318 318 319 320 321 321 321 320 320 321 322 318 320 321 321 322 322 323 330 327 328 326 325 326 328 330 333
308 308 312 313 312 312 312 312 311 312 311 311 312 308 307 309 316 323 325 322 323 323 323 321 322 321 320 319 318 319 320 320 321 322 322 323 324 320 319 321 321 320 321 323 326 324 327 327 325 324 325 325 326 329
307 308 312 312 313 313 312 312 311 312 312 312 312 307 307 310 318 322 323 323 321 324 322 322 323 322 321 321 321 320 318 319 319 322 321 322 324 319 319 323 321 322 322 323 324 324 325 325 325 324 324 324 323 324
308 308 311 311 311 309 312 311 312 312 312 312 308 307 309 314 319 318 320 319 321 322 322 323 325 324 321 324 325 320 322 320 319 319 321 319 323 321 325 322 321 322 322 323 323 323 324 324 324 324 323 323 324 324
307 307 310 308 306 306 307 312 312 313 314 308 307 311 316 318 317 320 318 318 324 326 323 321 325 325 323 325 324 323 321 323 321 318 319 320 320 331 321 320 321 321 323 323 322 322 322 323 322 323 322 322 322 322
307 308 308 307 305 306 307 307 307 309 306 308 314 319 319 319 320 317 318 323 323 323 325 326 322 324 322 323 324 324 322 324 324 322 321 319 322 323 320 319 319 319 321 322 323 322 321 321 321 321 320 320 321 321
307 308 308 308 305 305 309 307 309 308 310 316 321 325 321 317 319 322 323 323 324 324 324 323 323 324 321 324 324 323 325 324 323 324 321 326 325 323 320 320 319 317 320 321 321 320 320 319 319 319 319 319 319 319
307 308 308 308 305 307 307 310 311 312 318 319 321 320 318 321 323 323 324 323 324 325 322 323 323 322 322 323 324 324 324 322 323 321 321 328 326 323 321 320 319 317 318 319 318 317 315 315 315 315 315 315 315 317
307 307 308 308 306 307 307 308 307 312 313 318 322 321 322 322 327 324 324 324 323 322 323 322 323 323 323 322 324 324 324 324 321 320 328 325 329 324 322 320 319 317 318 318 316 315 315 315 315 315 315 315 315 315
309 307 307 309 307 307 307 307 306 311 315 323 322 326 322 322 320 320 322 322 323 324 324 323 322 322 322 323 324 324 324 322 322 325 326 326 328 325 323 320 319 318 319 319 316 317 317 317 317 317 316 316 316 315
309 308 307 310 308 307 309 308 307 308 318 320 319 329 320 319 321 321 322 325 324 323 322 322 322 323 323 324 323 323 324 325 324 325 325 328 327 325 323 321 319 318 318 317 316 317 317 317 318 318 317 317 316 315
308 308 310 310 308 308 309 309 309 311 316 319 319 322 320 322 321 321 323 324 324 323 323 322 323 323 324 323 324 325 325 325 325 324 325 329 329 328 326 324 323 321 319 318 316 315 317 320 319 318 316 313 313 312
308 311 310 310 310 310 311 312 315 316 317 318 317 315 318 322 324 320 322 323 324 323 323 323 324 325 324 324 324 324 324 324 325 324 324 327 330 329 327 325 324 323 321 319 319 318 315 313 313 313 313 312 312 312
311 311 308 308 310 311 310 310 313 315 316 316 317 318 318 318 319 323 324 329 326 325 324 324 324 324 325 324 324 324 324 324 325 325 325 328 328 327 326 324 322 322 321 318 313 313 312 312 311 311 312 312 311 311
310 309 310 309 310 312 313 312 313 316 317 317 317 317 318 318 317 318 322 324 326 327 325 326 326 325 324 323 325 326 325 328 326 331 333 329 327 326 322 320 320 317 316 314 313 312 310 312 311 311 310 309 311 310
309 308 309 310 309 313 315 318 314 317 318 319 319 319 320 319 318 317 320 323 326 327 327 325 326 324 326 328 327 326 327 327 327 329 330 328 324 322 319 318 317 315 313 311 310 310 311 310 309 309 309 310 310 309
309 309 309 310 311 312 315 318 321 321 322 323 322 323 320 320 320 319 320 320 322 327 327 325 325 327 328 329 326 326 327 328 327 331 332 327 324 321 318 316 314 313 310 312 312 310 310 310 309 309 307 308 308 308
310 310 311 311 313 313 315 316 319 319 321 320 322 323 322 324 322 321 322 321 320 321 324 324 325 326 326 332 330 330 329 329 328 324 324 324 324 320 318 316 314 313 313 312 311 310 310 309 308 308 308 308 307 308
310 311 315 315 317 317 318 316 319 319 320 320 320 320 322 324 322 324 326 324 323 322 320 321 327 331 333 331 330 329 328 327 327 326 323 323 322 319 317 315 313 314 313 311 311 311 310 309 308 308 308 308 307 308
311 314 317 317 317 318 317 321 321 321 321 321 321 322 322 328 329 331 330 329 329 327 329 330 330 329 329 329 330 329 327 326 326 323 321 321 320 319 316 314 314 313 312 312 311 311 310 310 309 307 308 307 306 306
313 315 318 317 318 319 319 321 322 322 322 321 323 323 327 327 329 327 327 329 331 331 331 330 329 328 330 330 330 326 325 323 322 322 319 319 319 318 316 316 315 314 312 312 311 310 310 311 310 309 308 308 307 307
314 315 315 319 318 320 320 322 322 324 324 324 323 325 327 326 325 327 328 328 331 328 327 328 328 328 327 324 323 323 322 319 318 318 318 317 317 316 317 316 315 314 313 313 312 311 311 311 311 310 309 308 306 306
315 318 318 317 319 320 321 321 321 323 325 325 326 325 325 325 327 328 328 327 325 323 321 321 322 324 326 323 320 319 319 318 317 316 317 317 316 316 315 316 316 315 314 313 312 312 312 311 311 310 309 308 307 306
317 318 320 320 320 319 321 322 323 325 326 327 328 326 326 327 328 330 326 320 317 317 317 317 316 318 320 320 319 318 318 318 318 316 316 316 316 316 316 316 316 314 314 312 311 312 312 312 311 310 309 308 307 307
318 318 318 319 320 322 322 323 325 325 323 326 327 327 327 328 325 322 319 317 317 318 319 319 319 320 320 319 318 317 317 317 316 317 316 315 315 314 314 314 315 313 313 312 311 312 312 311 310 309 308 308 307 307
317 317 319 320 321 322 322 321 323 322 323 324 326 326 326 326 325 321 318 318 317 318 319 319 318 318 318 317 316 314 314 314 314 314 315 314 313 311 311 311 311 312 312 312 312 311 309 309 307 307 307 307 307 307
317 318 319 320 321 320 321 321 322 322 323 324 326 327 326 326 324 320 319 318 316 315 317 317 317 317 316 315 314 313 313 312 311 312 311 311 311 311 311 311 310 310 309 310 311 311 309 308 308 307 307 307 307 307
318 319 320 320 320 320 319 320 321 322 325 326 327 324 324 324 321 320 319 318 317 317 315 314 314 314 313 313 312 312 310 311 311 311 311 310 311 311 311 310 310 309 309 309 310 310 309 308 308 308 308 308 308 308
318 318 318 319 320 322 321 321 322 323 324 326 326 326 325 322 321 320 318 318 318 318 317 316 315 314 314 314 314 313 311 312 310 310 309 309 309 310 311 310 310 309 309 309 309 309 309 309 309 309 308 308 308 308